STARLINK-30489, 57974

Orbit data source: Space-Track

STARLINK-30489, 57974 is a payload satellite owned by SpaceX/Seattle (US) in LEO that was launched on Sat, 30 Sep 2023 UTC via an FALCON 9 launch vehicle from the Air Force Eastern Test Range (AFETR). Payload-class satellites include a variety of spacecraft equipped with specific instruments for various scientific and technological missions. These include communications satellites like Starlink; space stations such as the ISS; scientific satellites like the Hubble; Earth observation satellites from companies like Planet Labs, Umbra, and HawkEye 360; GPS; miniature CubeSats for education and research; and military/defense satellites.

Loading next visibility...
Identifier
57974, 2023-151L
Orbit
LEO
Country
Flag of USUS
Related business
Manufacturer
SpaceX/Seattle
Mission
Operational Commercial Communications
Bus & Motor
STARLINK V2M, Unknown motor
Mass
730 kg wet, ~700 kg dry
Launch date (UTC)
2023-09-30 (3 years ago)
Launch vehicle
FALCON 9
Launch site
Air Force Eastern Test Range (AFETR)
Object type
Payload
Rocket body
Debris
Shape & HBR
Box + 2 Pan, 17.7 m
Radar Cross Section
33.884 m², Large (>1 m²)

Expand to show TLE details & history
Last TLE update: 12 hours ago

TLE from 12 hours ago
0 STARLINK-30489
1 57974U 23151L   26236.90953814  .00000670  00000-0  33868-4 0  9997
2 57974  43.0032 105.9633 0001566 261.2809  98.7865 15.27575546161490
Epoch: 2026-08-24T21:49Z
TLE epoch observation values (Epoch: 2026-08-24T21:49:44.095Z)
Latitude
-0.00003°
Longitude
165.34506°
Altitude
483.002 km
Speed
7.626 km/s
True Right ascension
07h 03m 51s
True Declination
0° 00' 00"
Sunlit
Object was in daylight at epoch
Visualization orbit readout
Latitude
Unknown
Longitude
Unknown
Altitude
Unknown
Speed
Unknown
Apparent Right ascension
Unknown
Apparent Declination
Unknown
Sunlit
N/A
Visualization observer readout
Local Sidereal Time
00:48:02
Azimuth
Unknown
Elevation
Unknown
Doppler factor
Unknown
Orbital elements
Apogee altitude
486.082 km
Perigee altitude
483.932 km
Semi-major axis
6,863.144 km
Eccentricity
0.00016
Inclination
43.0032°
RAAN
105.9633°
Arg. of periapsis
261.2809°
True anomaly
98.80423°
Mean anomaly
98.7865°
Eccentric anomaly
98.79537°
Mean motion
3.81732 °/min
Orbital period
94.31 mins
BSTAR
0.000033868
Loading maneuver chart data...
Computing Atmospheric mass density...
Loading historical data...
Loading historical data...
Loading historical data...
Loading historical data...
Loading historical data...
Loading historical data...
Loading historical data...

Documentation

Showing up to 5 results
|